Location: Pitton
(51.0667°N, 1.7000°W)
Time: 07:40:42
(UTC+00:00)

Cosmos 1023 Rocket - Pass Details

Date: 17 September 2019
Orbit: 737 x 772 km, 74.1° (Epoch: 20 October)

Event Time Altitude Azimuth Distance (km) Brightness Sun altitude
Rises 20:04:36 0° 335° (NNW) 3,224 8.6 -17.0°
Reaches altitude 10° 20:06:59 10° 337° (NNW) 2,289 7.7 -17.4°
Maximum altitude 20:12:11 81° 65° (ENE) 764 4.4 -18.1°
Enters shadow 20:14:47 30° 150° (SSE) 1,321 5.3 -18.5°
